CST,Max TemperatureF,Mean TemperatureF,Min TemperatureF,Max Dew PointF,MeanDew PointF,Min DewpointF,Max Humidity, Mean Humidity, Min Humidity, Max Sea Level PressureIn, Mean Sea Level PressureIn, Min Sea Level PressureIn, Max VisibilityMiles, Mean VisibilityMiles, Min VisibilityMiles, Max Wind SpeedMPH, Mean Wind SpeedMPH, Max Gust SpeedMPH,PrecipitationIn, CloudCover, Events, WindDirDegrees
2014-1-1,71,52,32,52,40,28,94,73,43,30.25,30.11,29.98,10,10,10,20,3,29,0.00,0,,229
2014-1-2,50,39,26,34,25,23,86,61,35,30.51,30.43,30.21,10,10,10,17,9,26,0.00,0,,353
2014-1-3,57,38,19,28,21,14,93,57,18,30.47,30.32,30.09,10,10,5,15,3,21,0.00,0,,170
2014-1-4,71,54,37,46,43,28,93,64,35,30.09,29.94,29.81,10,10,10,17,4,22,0.00,1,,209
2014-1-5,55,44,32,46,24,10,87,57,39,30.49,30.19,29.80,10,10,10,29,11,34,0.00,0,,350
2014-1-6,33,26,19,18,9,3,80,48,28,30.79,30.66,30.50,10,10,10,13,7,20,0.00,0,,12
2014-1-7,50,32,15,25,15,9,86,51,22,30.61,30.47,30.32,10,10,10,17,4,22,0.00,2,,183
2014-1-8,60,50,39,48,42,25,100,79,53,30.31,30.19,30.10,10,9,3,16,7,20,0.00,8,,161
2014-1-9,68,59,50,57,52,48,94,80,60,30.20,30.11,30.01,10,10,10,13,2,20,0.00,6,,133
2014-1-10,73,58,42,61,52,39,100,71,33,29.99,29.89,29.79,10,10,5,16,5,21,0.00,4,,215
2014-1-11,69,53,37,45,33,23,87,57,17,30.22,30.10,29.91,10,10,9,8,3,,0.00,0,,287
2014-1-12,73,52,32,55,40,28,93,62,30,30.14,30.02,29.90,10,10,10,20,4,25,0.00,0,,199
2014-1-13,64,48,33,55,30,18,100,49,16,30.18,30.09,29.90,10,10,10,21,7,25,0.00,0,,322
2014-1-14,71,48,26,30,24,18,80,47,14,30.41,30.18,30.05,10,10,7,20,4,28,0.00,0,,337
2014-1-15,62,46,30,30,24,21,81,49,22,30.50,30.35,30.16,10,10,10,9,4,,0.00,0,,303
2014-1-16,69,48,28,32,28,23,87,52,21,30.27,30.15,30.09,10,10,10,10,2,18,0.00,0,,36
2014-1-17,60,45,30,32,23,12,87,50,17,30.41,30.32,30.26,10,10,9,10,2,,0.00,0,,32
2014-1-18,69,48,28,39,32,23,87,60,31,30.27,30.20,30.11,10,10,10,14,1,20,0.00,0,,237
2014-1-19,71,50,30,34,29,19,93,56,15,30.39,30.25,30.12,10,10,9,7,1,,0.00,0,,215
2014-1-20,80,56,32,45,30,23,93,47,14,30.26,30.04,29.89,10,10,10,22,5,31,0.00,0,,323
2014-1-21,57,44,32,28,23,21,80,41,25,30.49,30.36,30.24,10,10,10,13,5,20,0.00,0,,351
2014-1-22,71,48,24,28,23,14,86,47,13,30.24,30.11,29.99,10,10,8,10,1,16,0.00,0,,159
2014-1-23,51,38,24,39,26,16,81,61,42,30.75,30.41,30.07,10,9,3,20,7,25,0.00,6,Rain,34
2014-1-24,39,32,24,21,13,5,80,50,33,30.75,30.60,30.36,10,10,8,12,6,17,0.00,5,,332
2014-1-25,69,45,21,36,24,18,86,50,18,30.36,30.19,30.03,10,10,8,10,2,,0.00,0,,268
2014-1-26,80,58,35,36,31,23,87,44,14,30.03,29.86,29.70,10,10,10,20,3,25,0.00,1,,271
2014-1-27,48,40,32,30,17,1,81,42,25,30.30,30.14,29.86,10,10,10,22,6,31,0.00,1,Rain,19
2014-1-28,37,32,26,21,10,5,74,43,26,30.48,30.40,30.30,10,10,5,16,7,21,0.01,3,Rain,11
2014-1-29,48,36,23,18,14,9,74,45,25,30.48,30.37,30.22,10,10,10,10,2,,0.00,0,,165
2014-1-30,62,45,28,43,33,12,87,63,41,30.21,30.02,29.89,10,10,10,22,6,28,0.00,2,,189
2014-1-31,80,56,33,59,45,34,100,69,28,29.96,29.87,29.81,10,8,0,13,3,18,0.00,1,Fog,175